Time,TemperatureF,DewpointF,PressureIn,WindDirection,WindDirectionDegrees,WindSpeedMPH,WindSpeedGustMPH,Humidity,HourlyPrecipIn,Conditions,Clouds,dailyrainin,SolarRadiationWatts/m^2,SoftwareType,DateUTC
2014-03-08 00:02:00,36.0,29.0,-100.00,North,-999,0.0,0.0,76,0.00,,,0.00,0.000000,,2014-03-08 05:02:00,
2014-03-08 00:12:00,37.0,30.0,-100.00,North,-999,0.0,1.0,75,0.00,,,0.00,0.000000,,2014-03-08 05:12:00,
2014-03-08 00:43:00,37.0,30.0,-100.00,North,-999,0.0,1.0,75,0.00,,,0.00,0.000000,,2014-03-08 05:43:00,
2014-03-08 00:53:00,37.0,30.0,-100.00,North,-999,0.0,1.0,75,0.00,,,0.00,0.000000,,2014-03-08 05:53:00,
2014-03-08 01:02:00,37.0,30.0,-100.00,North,-999,0.0,1.0,75,0.00,,,0.00,0.000000,,2014-03-08 06:02:00,
2014-03-08 01:42:00,37.0,29.0,-100.00,North,-999,0.0,1.0,74,0.00,,,0.00,0.000000,,2014-03-08 06:42:00,
2014-03-08 01:52:00,37.0,29.0,-100.00,North,-999,0.0,1.0,74,0.00,,,0.00,0.000000,,2014-03-08 06:52:00,
2014-03-08 02:02:00,37.0,29.0,-100.00,North,-999,0.0,1.0,74,0.00,,,0.00,0.000000,,2014-03-08 07:02:00,
2014-03-08 02:11:00,37.0,29.0,-100.00,North,-999,0.0,1.0,74,0.00,,,0.00,0.000000,,2014-03-08 07:11:00,
2014-03-08 05:12:00,36.0,32.0,-100.00,North,-999,0.0,2.0,84,-99.99,,,0.00,0.000000,,2014-03-08 10:12:00,
2014-03-08 05:43:00,36.0,32.0,-100.00,North,-999,0.0,2.0,84,-99.99,,,0.00,0.000000,,2014-03-08 10:43:00,
2014-03-08 05:53:00,36.0,32.0,-100.00,North,-999,0.0,2.0,84,-99.99,,,0.00,0.000000,,2014-03-08 10:53:00,
2014-03-08 06:02:00,36.0,32.0,-100.00,North,-999,0.0,2.0,84,-99.99,,,0.00,0.000000,,2014-03-08 11:02:00,
2014-03-08 06:12:00,36.0,32.0,-100.00,North,-999,0.0,3.0,84,0.00,,,0.00,0.000000,,2014-03-08 11:12:00,
2014-03-08 06:42:00,36.0,32.0,-100.00,North,-999,0.0,3.0,84,0.00,,,0.00,0.000000,,2014-03-08 11:42:00,
2014-03-08 06:52:00,36.0,32.0,-100.00,North,-999,0.0,3.0,84,0.00,,,0.00,0.000000,,2014-03-08 11:52:00,
2014-03-08 07:02:00,36.0,32.0,-100.00,North,-999,0.0,3.0,84,0.00,,,0.00,0.000000,,2014-03-08 12:02:00,
2014-03-08 07:42:00,37.0,32.0,-100.00,South,175,1.0,4.0,83,0.00,,,0.00,3.000000,,2014-03-08 12:42:00,
2014-03-08 07:53:00,37.0,32.0,-100.00,South,175,1.0,4.0,83,0.00,,,0.00,3.000000,,2014-03-08 12:53:00,
2014-03-08 08:02:00,37.0,32.0,-100.00,South,175,1.0,4.0,83,0.00,,,0.00,3.000000,,2014-03-08 13:02:00,
2014-03-08 08:11:00,37.0,32.0,-100.00,South,175,1.0,4.0,83,0.00,,,0.00,3.000000,,2014-03-08 13:11:00,
2014-03-08 11:12:00,53.0,33.0,-100.00,NW,304,1.0,8.0,46,0.00,,,0.00,630.000000,,2014-03-08 16:12:00,
2014-03-08 12:43:00,52.0,33.0,-100.00,NNW,333,2.0,9.0,49,0.00,,,0.00,628.000000,,2014-03-08 17:43:00,
2014-03-08 12:53:00,52.0,33.0,-100.00,NNW,333,2.0,9.0,49,0.00,,,0.00,628.000000,,2014-03-08 17:53:00,
2014-03-08 13:02:00,52.0,33.0,-100.00,NNW,333,2.0,9.0,49,0.00,,,0.00,628.000000,,2014-03-08 18:02:00,
2014-03-08 13:11:00,52.0,33.0,-100.00,NNW,333,2.0,9.0,49,0.00,,,0.00,628.000000,,2014-03-08 18:11:00,
2014-03-08 13:12:00,54.0,30.0,-100.00,NW,319,2.0,11.0,40,0.00,,,0.00,630.000000,,2014-03-08 18:12:00,
2014-03-08 13:43:00,54.0,30.0,-100.00,NW,319,2.0,11.0,40,0.00,,,0.00,630.000000,,2014-03-08 18:43:00,
2014-03-08 13:53:00,54.0,30.0,-100.00,NW,319,2.0,11.0,40,0.00,,,0.00,630.000000,,2014-03-08 18:53:00,
2014-03-08 14:02:00,54.0,30.0,-100.00,NW,319,2.0,11.0,40,0.00,,,0.00,630.000000,,2014-03-08 19:02:00,
2014-03-08 14:12:00,54.0,28.0,-100.00,WNW,300,2.0,9.0,37,0.00,,,0.00,588.000000,,2014-03-08 19:12:00,
2014-03-08 14:42:00,54.0,28.0,-100.00,WNW,300,2.0,9.0,37,0.00,,,0.00,588.000000,,2014-03-08 19:42:00,
2014-03-08 14:52:00,54.0,28.0,-100.00,WNW,300,2.0,9.0,37,0.00,,,0.00,588.000000,,2014-03-08 19:52:00,
2014-03-08 15:02:00,54.0,28.0,-100.00,WNW,300,2.0,9.0,37,0.00,,,0.00,588.000000,,2014-03-08 20:02:00,
2014-03-08 15:42:00,53.0,29.0,-100.00,West,262,1.0,12.0,40,0.00,,,0.00,467.000000,,2014-03-08 20:42:00,
2014-03-08 15:53:00,53.0,29.0,-100.00,West,262,1.0,12.0,40,0.00,,,0.00,467.000000,,2014-03-08 20:53:00,
2014-03-08 16:02:00,53.0,29.0,-100.00,West,262,1.0,12.0,40,0.00,,,0.00,467.000000,,2014-03-08 21:02:00,
2014-03-08 16:11:00,53.0,29.0,-100.00,West,262,1.0,12.0,40,0.00,,,0.00,467.000000,,2014-03-08 21:11:00,
2014-03-08 16:12:00,49.0,29.0,-100.00,NNW,327,1.0,10.0,46,0.00,,,0.00,199.000000,,2014-03-08 21:12:00,
2014-03-08 16:43:00,49.0,29.0,-100.00,NNW,327,1.0,10.0,46,0.00,,,0.00,199.000000,,2014-03-08 21:43:00,
2014-03-08 16:54:00,49.0,29.0,-100.00,NNW,327,1.0,10.0,46,0.00,,,0.00,199.000000,,2014-03-08 21:54:00,
2014-03-08 17:03:00,49.0,29.0,-100.00,NNW,327,1.0,10.0,46,0.00,,,0.00,199.000000,,2014-03-08 22:03:00,
2014-03-08 17:12:00,47.0,29.0,-100.00,WNW,301,1.0,6.0,50,0.00,,,0.00,99.000000,,2014-03-08 22:12:00,
2014-03-08 17:43:00,47.0,29.0,-100.00,WNW,301,1.0,6.0,50,0.00,,,0.00,99.000000,,2014-03-08 22:43:00,
2014-03-08 17:53:00,47.0,29.0,-100.00,WNW,301,1.0,6.0,50,0.00,,,0.00,99.000000,,2014-03-08 22:53:00,
2014-03-08 18:03:00,47.0,29.0,-100.00,WNW,301,1.0,6.0,50,0.00,,,0.00,99.000000,,2014-03-08 23:03:00,
2014-03-08 18:12:00,45.0,31.0,-100.00,NW,318,1.0,4.0,57,0.00,,,0.00,27.000000,,2014-03-08 23:12:00,
2014-03-08 18:42:00,45.0,31.0,-100.00,NW,318,1.0,4.0,57,0.00,,,0.00,27.000000,,2014-03-08 23:42:00,
2014-03-08 18:53:00,45.0,31.0,-100.00,NW,318,1.0,4.0,57,0.00,,,0.00,27.000000,,2014-03-08 23:53:00,
2014-03-08 19:02:00,45.0,31.0,-100.00,NW,318,1.0,4.0,57,0.00,,,0.00,27.000000,,2014-03-09 00:02:00,
2014-03-08 19:12:00,44.0,32.0,-100.00,NW,312,1.0,7.0,62,0.00,,,0.00,0.000000,,2014-03-09 00:12:00,
2014-03-08 19:42:00,44.0,32.0,-100.00,NW,312,1.0,7.0,62,0.00,,,0.00,0.000000,,2014-03-09 00:42:00,
2014-03-08 19:52:00,44.0,32.0,-100.00,NW,312,1.0,7.0,62,0.00,,,0.00,0.000000,,2014-03-09 00:52:00,
2014-03-08 20:02:00,44.0,32.0,-100.00,NW,312,1.0,7.0,62,0.00,,,0.00,0.000000,,2014-03-09 01:02:00,
2014-03-08 20:42:00,41.0,36.0,-100.00,NW,315,1.0,8.0,83,0.00,,,0.00,0.000000,,2014-03-09 01:42:00,
2014-03-08 20:52:00,41.0,36.0,-100.00,NW,315,1.0,8.0,83,0.00,,,0.00,0.000000,,2014-03-09 01:52:00,
2014-03-08 21:02:00,41.0,36.0,-100.00,NW,315,1.0,8.0,83,0.00,,,0.00,0.000000,,2014-03-09 02:02:00,
2014-03-08 21:11:00,41.0,36.0,-100.00,NW,315,1.0,8.0,83,0.00,,,0.00,0.000000,,2014-03-09 02:11:00,
2014-03-08 21:42:00,40.0,36.0,-100.00,NNW,328,1.0,4.0,86,0.00,,,0.00,0.000000,,2014-03-09 02:42:00,
2014-03-08 21:52:00,40.0,36.0,-100.00,NNW,328,1.0,4.0,86,0.00,,,0.00,0.000000,,2014-03-09 02:52:00,
2014-03-08 22:02:00,40.0,36.0,-100.00,NNW,328,1.0,4.0,86,0.00,,,0.00,0.000000,,2014-03-09 03:02:00,
2014-03-08 22:11:00,40.0,36.0,-100.00,NNW,328,1.0,4.0,86,0.00,,,0.00,0.000000,,2014-03-09 03:11:00,
2014-03-08 22:12:00,34.0,34.0,-100.00,NNW,332,5.0,11.0,98,0.00,,,0.00,0.000000,,2014-03-09 03:12:00,
2014-03-08 22:43:00,34.0,34.0,-100.00,NNW,332,5.0,11.0,98,0.00,,,0.00,0.000000,,2014-03-09 03:43:00,
2014-03-08 22:54:00,34.0,34.0,-100.00,NNW,332,5.0,11.0,98,0.00,,,0.00,0.000000,,2014-03-09 03:54:00,
2014-03-08 23:03:00,-999.0,-99.9,-100.00,NNW,332,5.0,11.0,-999,0.00,,,0.00,0.000000,,2014-03-09 04:03:00,
2014-03-08 23:12:00,32.0,32.0,-100.00,NW,324,3.0,10.0,100,0.00,,,0.00,0.000000,,2014-03-09 04:12:00,
2014-03-08 23:43:00,32.0,32.0,-100.00,NW,324,3.0,10.0,100,0.00,,,0.00,0.000000,,2014-03-09 04:43:00,
2014-03-08 23:53:00,32.0,32.0,-100.00,NW,324,3.0,10.0,100,0.00,,,0.00,0.000000,,2014-03-09 04:53:00,